User: anonymous   Login
Location: Unspecified
(0.0000°N, 0.0000°E)
Time: 23:38:49
(UTC+02:00)
Language:

GP-B - Orbit

View from above orbital plane
View from above orbital plane
View from above satellite
View from above satellite

Ground track
Ground track

The orbit data is extracted from the following two-line orbital elements,

1 28230U 04014A   16119.94557675 +.00000222 +00000-0 +28230-4 0  9995
2 28230 089.8582 129.5416 0002490 106.0190 254.1307 14.78408625105099
Epoch (UTC): 28 April 2016 22:41:37
Eccentricity: 0.0002490
inclination: 89.8582°
perigee height: 632 km
apogee height: 636 km
right ascension of ascending node: 129.5416°
argument of perigee: 106.0190°
revolutions per day: 14.78408625
mean anomaly at epoch: 254.1307°
orbit number at epoch: 10509

The dashed part of the orbit path shows where the satellite is in the earth's shadow,  

DLR